Location: Newark
(49.8348°N, 24.0280°E)
Time: 02:33:39
(UTC+00:00)

Explorer 7 - Pass Details

Date: 23 January 2020
Orbit: 485 x 679 km, 50.3° (Epoch: 26 February)

Event Time Altitude Azimuth Distance (km) Brightness Sun altitude
Rises 03:25:05 0° 285° (WNW) 2,592 - -26.1°
Reaches altitude 10° 03:27:21 10° 276° (W) 1,727 - -25.7°
Maximum altitude 03:30:54 34° 211° (SSW) 885 - -25.2°
Exits shadow 03:32:30 24° 167° (SSE) 1,123 8.5 -24.9°
Drops below altitude 10° 03:34:37 10° 146° (SE) 1,809 9.9 -24.6°
Sets 03:37:03 0° 137° (SE) 2,736 11.0 -24.2°
